Main page
METAR-TAF:

METAR-TAF

Airports :

Hobart Regional Airport

Hobart, Oklahoma, United States

latitude: 34-59-22N, longitude: 099-03-09W, elevation: 1561 ft

Current weather observation

The report was made 37 minutes ago, at 08:53 UTC
Wind 9 mph from the South
Temperature 77°F
Humidity 79%
Pressure 30.00 in. Hg
Visibility: 10 miles
Clear sky

METAR: KHBR 170853Z AUTO 19008KT 10SM CLR 25/21 A3000 RMK AO2 SLP137 T02500206 58005

Time: 04:30 (09:30 UTC)


TAF: missing

Weather observations and forecasts of more than 4000 airports (METAR and TAF reports).

The available stations are represented by yellow and red dots on the map.

Hover mouse over dot to see the name of the station.

Then click to see weather observations and forecasts.

To change the map : click on the green buttons with a black cross to zoom in, on the green button with a dash to zoom out, or on the green arrows for adjacent maps.


METAR-TAF: